CAPE
2 2 0 2 33 12 9 9 40 46 17 10 17 12 0 40 75 73 51 27 58 85 79 35 14 13 23 28 22 13 30 0 0 0 0 0 0 0 0 0 0 0 0
2 7 0 0 1 3 3 0 59 14 18 16 5 7 2 83 66 20 35 42 45 65 28 31 20 23 22 15 8 43 52 7 0 0 0 0 0 0 0 0 0 0 0
6 1 7 0 1 0 1 4 6 1 1 0 5 4 4 49 65 81 56 29 72 115 130 98 40 28 59 29 21 46 53 41 0 0 0 0 0 0 0 0 0 0 0
7 0 1 3 0 0 4 0 14 13 16 11 0 10 18 8 5 0 55 85 67 50 107 103 98 86 51 45 37 47 45 53 11 1 0 0 0 0 0 0 0 0 0
31 1 0 2 0 1 2 0 2 2 11 0 0 0 0 11 9 0 3 2 9 38 30 32 49 43 46 61 63 67 55 42 40 20 13 22 17 12 11 17 2 0 0
19 17 0 0 0 0 0 0 0 0 0 0 0 0 0 0 0 0 0 0 0 0 0 0 0 2 20 43 77 59 55 73 44 37 45 17 20 1 16 6 0 3 2
21 36 7 0 0 0 0 0 0 0 0 0 0 0 0 0 0 0 0 0 0 0 0 0 0 0 20 42 50 61 71 74 64 51 66 16 26 8 4 0 1 2 2
15 52 50 24 0 0 2 0 0 0 0 0 0 0 0 0 0 0 0 0 0 0 0 0 0 0 1 9 16 31 69 86 80 89 68 55 9 21 5 0 4 0 0
16 47 68 91 71 33 11 0 0 0 0 0 0 0 0 0 0 0 0 0 0 0 0 0 0 0 0 5 11 11 46 90 85 76 91 98 41 18 0 4 3 1 0
2 31 75 65 101 105 72 44 4 0 0 0 0 0 0 0 0 0 0 0 1 1 0 0 5 3 6 9 23 39 83 99 90 102 117 130 76 31 1 6 15 9 0
0 16 47 73 77 104 150 125 106 24 0 0 0 0 0 0 0 0 0 0 0 0 0 0 5 11 51 80 58 60 63 92 77 107 103 128 39 39 0 6 14 1 8
0 0 0 26 57 68 118 110 82 111 118 14 0 0 0 0 0 0 0 0 0 0 7 23 32 59 53 116 78 56 42 0 0 54 118 114 102 13 1 3 10 0 1
0 0 12 31 51 84 86 101 95 82 85 106 16 1 0 0 1 0 0 15 32 52 89 115 109 141 140 62 67 43 0 73 28 66 102 100 66 7 16 1 15 8 7
0 2 16 64 64 81 105 99 88 87 72 127 148 141 103 88 70 27 36 56 65 54 64 50 114 9 30 0 8 17 73 100 131 118 125 114 47 4 3 15 2 1 2
8 0 7 30 50 61 84 93 89 65 38 38 57 92 103 112 155 181 152 115 83 86 101 96 93 166 101 10 17 18 16 142 54 65 83 59 4 1 0 0 3 3 0
30 4 0 7 31 63 82 86 74 74 55 27 4 36 79 103 160 155 126 107 128 134 105 199 363 338 123 68 43 30 99 67 80 8 44 14 2 5 0 4 0 0 0
19 5 0 0 0 6 75 86 81 69 62 52 41 52 80 124 122 116 126 103 128 438 354 145 177 157 275 77 50 124 88 117 93 43 11 9 0 1 0 0 0 0 0
0 4 0 0 1 8 20 37 46 53 53 55 65 94 108 143 164 184 196 381 306 187 128 109 152 95 93 53 65 68 95 11 11 24 24 1 2 3 3 4 0 0 0
0 0 0 7 10 4 9 35 56 79 99 118 148 129 157 149 173 353 205 119 103 130 15 48 20 23 34 11 20 4 6 12 14 4 0 3 7 0 0 0 0 0 0
0 3 13 13 17 19 43 66 89 135 185 260 302 164 165 135 140 121 131 93 32 20 12 17 8 4 17 19 24 17 13 7 0 0 0 0 1 0 0 0 0 0 0
4 4 5 23 18 38 80 113 145 245 316 399 371 230 177 141 107 43 8 1 8 5 10 6 5 5 6 5 8 2 2 0 1 4 0 0 0 0 0 0 0 0 0
3 11 14 22 96 156 192 204 203 128 119 150 153 76 27 1 0 0 4 7 0 5 4 2 6 6 13 14 8 0 0 2 2 0 0 0 0 0 0 0 0 0 0
4 32 52 62 72 73 62 52 8 3 3 1 0 2 0 0 0 0 0 0 0 0 0 0 6 0 7 6 5 5 2 0 0 0 0 0 0 0 0 0 0 0 0
23 22 15 9 11 3 0 0 0 0 0 0 0 0 0 0 0 0 0 0 0 0 0 0 0 0 0 0 1 0 0 0 0 0 0 0 0 0 0 0 0 0 0
0 0 0 1 2 0 0 0 0 0 0 0 0 0 0 0 0 0 0 0 0 0 0 0 0 1 0 0 0 0 0 0 0 0 0 0 0 0 0 0 0 0 0
1 0 0 0 0 0 1 0 0 0 0 0 0 0 0 0 0 0 0 0 0 0 0 0 0 0 0 0 0 0 0 0 0 0 0 0 0 0 0 0 0 0 0
CIN
-82 0 0 -1 0 -1 -6 -8 -2 0 0 -7 -2 -14 -17 -13 -3 -15 -18 -155 -23 -13 -36 -27 -36 -67 -77 -75 -63 -31 -10 0 0 0 0 0 0 0 0 0 0 0 0
-71 0 0 0 -1 -4 -2 0 -1 -13 -1 -14 -7 0 0 -9 -19 -95 -121 -114 -111 -147 -61 -24 -37 -50 -72 -88 -62 -33 -9 -18 0 0 0 0 0 0 0 0 0 0 0
-57 0 0 0 0 0 0 0 -18 0 0 0 0 0 0 -2 -7 -16 -23 -11 -19 -56 -38 -22 -51 -60 -56 -44 -40 -15 -18 -24 0 0 0 0 0 0 0 0 0 0 0
-76 0 0 0 0 0 0 0 0 0 0 -1 0 0 0 0 0 0 -6 -6 -21 -31 -74 -49 -32 -22 -29 -29 -27 -15 -37 -20 -34 -6 0 0 0 0 0 0 0 0 0
-86 -46 0 0 0 0 0 0 0 0 0 0 0 0 0 0 0 0 0 -1 -6 -24 -23 -94 -67 -42 -34 -30 -28 -11 -21 -35 -26 -20 -19 0 0 0 0 0 -2 0 0
-156 -54 0 0 0 0 0 0 0 0 0 0 0 0 0 0 0 0 0 0 0 0 0 0 0 -60 -103 -67 -52 -36 -24 -29 -29 -9 0 -2 -2 0 -1 -1 0 0 -2
-203 -79 -38 0 0 0 0 0 0 0 0 0 0 0 0 0 0 0 0 0 0 0 0 0 0 0 -120 -109 -63 -31 -30 -27 -16 -7 -3 -3 -1 0 -7 0 -1 0 0
-215 -119 -44 -30 0 0 0 0 0 0 0 0 0 0 0 0 0 0 0 0 0 0 0 0 0 0 -20 -121 -82 -46 -34 -26 -29 -21 -8 -1 0 0 0 0 0 0 0
-86 -143 -69 -32 -22 -20 -13 0 0 0 0 0 0 0 0 0 0 0 0 0 0 0 0 0 0 0 -2 -10 -2 0 -47 -37 -32 -22 -5 -3 -1 0 0 0 0 0 0
-45 -75 -73 -60 -36 -27 -27 -22 -8 0 0 0 0 0 0 0 0 0 0 0 -23 -15 0 -3 -11 -10 -81 -27 -8 0 -35 -25 -24 -9 -2 -2 0 0 0 -1 0 0 0
-20 -75 -69 -57 -68 -34 -22 -34 -47 -35 0 0 0 0 0 0 0 0 0 0 0 0 0 0 -11 -58 -42 -35 -18 -2 -12 -2 -3 0 -2 -2 -1 0 0 -3 0 0 -1
-2 0 -6 -85 -51 -49 -29 -41 -46 -41 -37 -35 0 0 0 0 0 0 0 0 0 0 -25 -25 -36 -27 -19 -4 -8 -1 0 0 0 -9 0 0 0 -1 0 -2 0 0 0
0 0 -108 -124 -32 -51 -56 -46 -49 -65 -28 -46 -51 -7 -6 0 -12 0 0 -106 -86 -62 -38 -31 -39 -15 -1 0 -5 -1 0 0 0 0 0 0 0 -6 -1 -22 0 0 0
0 -24 -138 -117 -87 -59 -54 -79 -105 -78 -57 -29 -38 -37 -36 -43 -59 -38 -26 -29 -25 -16 -21 -45 -14 -21 -17 0 -1 -21 0 0 0 0 0 0 -1 0 0 0 -1 0 -1
-12 0 -27 -76 -119 -101 -94 -89 -120 -120 -121 -142 -93 -39 -47 -37 -36 -25 -36 -36 -37 -29 -24 -18 -4 0 -5 -15 -2 -7 -5 0 0 0 0 -3 -2 -1 -1 0 0 -2 0
-5 -22 0 -38 -64 -69 -97 -93 -104 -96 -109 -122 -36 -97 -45 -42 -21 -34 -50 -45 -33 -36 -23 -8 0 0 -7 -33 -35 -25 -3 -1 0 -2 0 0 0 0 0 0 0 0 0
0 -2 0 0 0 -31 -49 -47 -74 -81 -88 -102 -95 -114 -64 -40 -51 -62 -55 -48 -35 -2 -1 -6 -4 -6 0 -20 -20 0 -1 0 0 0 -20 -9 0 -1 0 0 0 0 0
-1 -5 0 0 -19 -34 -49 -29 -32 -53 -68 -82 -55 -48 -63 -51 -54 -39 -33 -7 -1 -3 -1 0 0 0 0 -3 0 -3 -2 0 0 -11 -11 0 -4 0 0 -1 0 0 0
0 -1 0 -21 -11 -15 -304 -300 -188 -160 -120 -78 -59 -70 -80 -63 -46 -15 -9 -7 -3 0 -27 -24 -37 -35 -13 -3 -3 -11 0 -3 0 -5 0 0 0 0 0 0 0 0 0
0 -23 -330 -240 -277 -314 -287 -232 -202 -144 -81 -70 -20 -38 -43 -22 -23 -16 -4 -3 -19 0 0 -19 0 0 0 0 0 0 -11 -2 0 0 0 0 0 0 0 0 0 0 0
-363 -282 -299 -308 -301 -325 -265 -223 -167 -107 -70 -29 -18 -24 -16 -12 -12 -20 -26 0 0 0 0 0 -1 0 0 0 0 -14 -15 0 0 0 0 0 0 0 0 0 0 0 0
-358 -361 -351 -356 -303 -250 -187 -132 -111 -103 -85 -52 -28 -38 -18 0 0 0 0 0 0 0 0 0 0 0 0 0 -5 0 0 0 0 0 0 0 0 0 0 0 0 0 0
-313 -322 -303 -288 -283 -233 -195 -167 -153 -20 0 0 0 0 0 0 0 0 0 0 0 0 0 0 0 0 0 0 -1 -1 -4 0 0 0 0 0 0 0 0 0 0 0 0
-267 -242 -249 -274 -227 -243 0 0 0 0 0 0 0 0 0 0 0 0 0 0 0 0 0 0 0 0 0 0 -2 0 0 0 0 0 0 0 0 0 0 0 0 0 0
-3 -28 0 -1 -2 0 0 0 0 0 0 0 0 0 0 0 0 0 0 0 0 0 0 0 0 -1 0 0 0 0 0 0 0 0 0 0 0 0 0 0 0 0 0
-19 0 0 0 0 0 -29 -12 0 0 0 0 0 0 0 0 0 0 0 0 0 0 0 0 0 0 0 0 0 0 0 0 0 0 0 0 0 0 0 0 0 0 0
Wind_Speed
nan nan nan nan nan nan nan nan nan nan nan nan nan nan nan nan nan nan nan nan nan nan nan nan nan nan nan nan nan nan nan nan nan nan nan nan nan nan nan nan nan nan nan
nan nan nan nan nan nan nan nan nan nan nan nan nan nan nan nan nan nan nan nan nan nan nan nan nan nan nan nan nan nan nan nan nan nan nan nan nan nan nan nan nan nan nan
nan nan nan nan nan nan nan nan nan nan nan nan nan nan nan nan nan nan nan nan nan 24 24 nan nan nan nan nan nan nan nan nan nan nan nan nan nan nan nan nan nan nan nan
nan nan nan nan nan nan nan nan nan nan nan nan nan nan nan nan nan nan nan nan nan nan 20 15 nan nan nan nan nan nan nan nan nan nan nan nan nan nan nan nan nan nan nan
nan nan nan nan nan nan nan nan nan nan nan nan nan nan nan nan nan nan nan nan nan nan nan nan nan nan nan nan nan nan nan nan nan nan nan nan nan nan nan nan nan nan nan
nan nan nan nan nan nan nan nan nan nan nan nan nan nan nan nan nan nan nan nan nan nan nan nan nan nan nan nan nan nan nan nan nan nan nan nan nan nan nan nan nan nan nan
nan nan nan nan nan nan nan nan nan nan nan nan nan nan nan nan nan nan nan nan nan nan nan nan nan nan nan nan nan nan nan nan nan nan nan nan nan nan nan nan nan nan nan
nan nan nan nan nan nan nan nan nan nan nan nan nan nan nan nan nan nan nan nan nan nan nan nan nan nan nan nan nan nan nan nan nan nan nan nan nan nan nan nan nan nan nan
nan nan nan nan nan nan nan nan nan nan nan nan nan nan nan nan nan nan nan nan nan nan nan nan nan nan nan nan nan nan nan nan nan nan nan nan nan nan nan nan nan nan nan
nan nan nan nan 14 19 nan nan nan nan nan nan nan nan nan nan nan nan nan nan nan nan nan nan nan nan nan nan nan nan nan nan nan 38 40 40 nan nan nan nan nan nan nan
nan nan nan nan nan 21 24 17 15 nan nan nan nan nan nan nan nan nan nan nan nan nan nan nan nan nan nan nan nan nan nan nan nan 38 39 40 nan nan nan nan nan nan nan
nan nan nan nan nan nan 18 17 nan 16 17 nan nan nan nan nan nan nan nan nan nan nan nan nan nan nan nan 50 nan nan nan nan nan nan 43 44 46 nan nan nan nan nan nan
nan nan nan nan nan nan nan 15 nan nan nan 20 nan nan nan nan nan nan nan nan nan nan nan 26 37 21 31 nan nan nan nan nan nan nan 49 49 nan nan nan nan nan nan nan
nan nan nan nan nan nan 11 nan nan nan nan 17 16 16 15 nan nan nan nan nan nan nan nan nan 28 nan nan nan nan nan nan 36 41 46 48 51 nan nan nan nan nan nan nan
nan nan nan nan nan nan nan nan nan nan nan nan nan nan 16 17 21 22 24 27 nan nan 29 nan nan 35 32 nan nan nan nan 42 nan nan nan nan nan nan nan nan nan nan nan
nan nan nan nan nan nan nan nan nan nan nan nan nan nan nan 23 25 26 28 29 28 31 34 37 39 42 39 nan nan nan nan nan nan nan nan nan nan nan nan nan nan nan nan
nan nan nan nan nan nan nan nan nan nan nan nan nan nan nan 28 29 33 36 35 35 37 38 40 41 38 38 nan nan 47 nan 51 nan nan nan nan nan nan nan nan nan nan nan
nan nan nan nan nan nan nan nan nan nan nan nan nan nan 38 38 39 38 37 38 40 41 43 45 48 nan nan nan nan nan nan nan nan nan nan nan nan nan nan nan nan nan nan
nan nan nan nan nan nan nan nan nan nan nan 35 37 37 37 41 43 43 43 43 46 48 nan nan nan nan nan nan nan nan nan nan nan nan nan nan nan nan nan nan nan nan nan
nan nan nan nan nan nan nan nan nan 36 36 36 38 38 41 43 45 45 45 nan nan nan nan nan nan nan nan nan nan nan nan nan nan nan nan nan nan nan nan nan nan nan nan
nan nan nan nan nan nan nan 36 38 39 39 41 43 44 45 47 48 nan nan nan nan nan nan nan nan nan nan nan nan nan nan nan nan nan nan nan nan nan nan nan nan nan nan
nan nan nan nan nan 35 41 46 47 46 49 49 49 nan nan nan nan nan nan nan nan nan nan nan nan nan nan nan nan nan nan nan nan nan nan nan nan nan nan nan nan nan nan
nan nan nan nan nan nan nan nan nan nan nan nan nan nan nan nan nan nan nan nan nan nan nan nan nan nan nan nan nan nan nan nan nan nan nan nan nan nan nan nan nan nan nan
nan nan nan nan nan nan nan nan nan nan nan nan nan nan nan nan nan nan nan nan nan nan nan nan nan nan nan nan nan nan nan nan nan nan nan nan nan nan nan nan nan nan nan
nan nan nan nan nan nan nan nan nan nan nan nan nan nan nan nan nan nan nan nan nan nan nan nan nan nan nan nan nan nan nan nan nan nan nan nan nan nan nan nan nan nan nan
nan nan nan nan nan nan nan nan nan nan nan nan nan nan nan nan nan nan nan nan nan nan nan nan nan nan nan nan nan nan nan nan nan nan nan nan nan nan nan nan nan nan nan
Wind_Direction
nan nan nan nan nan nan nan nan nan nan nan nan nan nan nan nan nan nan nan nan nan nan nan nan nan nan nan nan nan nan nan nan nan nan nan nan nan nan nan nan nan nan nan
nan nan nan nan nan nan nan nan nan nan nan nan nan nan nan nan nan nan nan nan nan nan nan nan nan nan nan nan nan nan nan nan nan nan nan nan nan nan nan nan nan nan nan
nan nan nan nan nan nan nan nan nan nan nan nan nan nan nan nan nan nan nan nan nan 250 254 nan nan nan nan nan nan nan nan nan nan nan nan nan nan nan nan nan nan nan nan
nan nan nan nan nan nan nan nan nan nan nan nan nan nan nan nan nan nan nan nan nan nan 242 229 nan nan nan nan nan nan nan nan nan nan nan nan nan nan nan nan nan nan nan
nan nan nan nan nan nan nan nan nan nan nan nan nan nan nan nan nan nan nan nan nan nan nan nan nan nan nan nan nan nan nan nan nan nan nan nan nan nan nan nan nan nan nan
nan nan nan nan nan nan nan nan nan nan nan nan nan nan nan nan nan nan nan nan nan nan nan nan nan nan nan nan nan nan nan nan nan nan nan nan nan nan nan nan nan nan nan
nan nan nan nan nan nan nan nan nan nan nan nan nan nan nan nan nan nan nan nan nan nan nan nan nan nan nan nan nan nan nan nan nan nan nan nan nan nan nan nan nan nan nan
nan nan nan nan nan nan nan nan nan nan nan nan nan nan nan nan nan nan nan nan nan nan nan nan nan nan nan nan nan nan nan nan nan nan nan nan nan nan nan nan nan nan nan
nan nan nan nan nan nan nan nan nan nan nan nan nan nan nan nan nan nan nan nan nan nan nan nan nan nan nan nan nan nan nan nan nan nan nan nan nan nan nan nan nan nan nan
nan nan nan nan 341 343 nan nan nan nan nan nan nan nan nan nan nan nan nan nan nan nan nan nan nan nan nan nan nan nan nan nan nan 274 279 292 nan nan nan nan nan nan nan
nan nan nan nan nan 306 313 301 305 nan nan nan nan nan nan nan nan nan nan nan nan nan nan nan nan nan nan nan nan nan nan nan nan 278 292 298 nan nan nan nan nan nan nan
nan nan nan nan nan nan 305 285 nan 300 300 nan nan nan nan nan nan nan nan nan nan nan nan nan nan nan nan 287 nan nan nan nan nan nan 302 305 295 nan nan nan nan nan nan
nan nan nan nan nan nan nan 308 nan nan nan 297 nan nan nan nan nan nan nan nan nan nan nan 305 312 325 329 nan nan nan nan nan nan nan 302 299 nan nan nan nan nan nan nan
nan nan nan nan nan nan 321 nan nan nan nan 300 307 315 322 nan nan nan nan nan nan nan nan nan 306 nan nan nan nan nan nan 293 291 292 296 298 nan nan nan nan nan nan nan
nan nan nan nan nan nan nan nan nan nan nan nan nan nan 303 296 293 299 299 300 nan nan 309 nan nan 304 303 nan nan nan nan 295 nan nan nan nan nan nan nan nan nan nan nan
nan nan nan nan nan nan nan nan nan nan nan nan nan nan nan 292 293 297 297 298 298 296 298 297 300 304 300 nan nan nan nan nan nan nan nan nan nan nan nan nan nan nan nan
nan nan nan nan nan nan nan nan nan nan nan nan nan nan nan 286 295 292 289 291 293 290 294 294 297 298 293 nan nan 293 nan 289 nan nan nan nan nan nan nan nan nan nan nan
nan nan nan nan nan nan nan nan nan nan nan nan nan nan 270 277 283 289 286 281 280 284 284 286 286 nan nan nan nan nan nan nan nan nan nan nan nan nan nan nan nan nan nan
nan nan nan nan nan nan nan nan nan nan nan 275 274 273 275 277 279 279 278 279 281 278 nan nan nan nan nan nan nan nan nan nan nan nan nan nan nan nan nan nan nan nan nan
nan nan nan nan nan nan nan nan nan 281 281 279 275 274 274 278 279 280 280 nan nan nan nan nan nan nan nan nan nan nan nan nan nan nan nan nan nan nan nan nan nan nan nan
nan nan nan nan nan nan nan 280 281 278 278 275 272 270 271 273 276 nan nan nan nan nan nan nan nan nan nan nan nan nan nan nan nan nan nan nan nan nan nan nan nan nan nan
nan nan nan nan nan 270 272 274 277 282 279 276 275 nan nan nan nan nan nan nan nan nan nan nan nan nan nan nan nan nan nan nan nan nan nan nan nan nan nan nan nan nan nan
nan nan nan nan nan nan nan nan nan nan nan nan nan nan nan nan nan nan nan nan nan nan nan nan nan nan nan nan nan nan nan nan nan nan nan nan nan nan nan nan nan nan nan
nan nan nan nan nan nan nan nan nan nan nan nan nan nan nan nan nan nan nan nan nan nan nan nan nan nan nan nan nan nan nan nan nan nan nan nan nan nan nan nan nan nan nan
nan nan nan nan nan nan nan nan nan nan nan nan nan nan nan nan nan nan nan nan nan nan nan nan nan nan nan nan nan nan nan nan nan nan nan nan nan nan nan nan nan nan nan
nan nan nan nan nan nan nan nan nan nan nan nan nan nan nan nan nan nan nan nan nan nan nan nan nan nan nan nan nan nan nan nan nan nan nan nan nan nan nan nan nan nan nan